FLOCK 2B-1

Last updated on Thu Sep 22 2016 05:45:33 GMT+0000 (Coordinated Universal Time)

1 40950U 98067HB 16265.88789427 .20582812 12289-4 30555-3 0 9996 2 40950 51.6051 243.2750 0018189 175.9017 189.7154 16.47003763 55404

Satellite not in orbit